TimeCDT,TemperatureF,Dew PointF,Humidity,Sea Level PressureIn,VisibilityMPH,Wind Direction,Wind SpeedMPH,Gust SpeedMPH,PrecipitationIn,Events,Conditions,WindDirDegrees,DateUTC
12:53 AM,63.0,57.9,84,29.65,10.0,South,5.8,-,N/A,,Clear,190,2013-05-20 05:53:00
1:53 AM,60.1,57.0,90,29.63,10.0,Calm,Calm,-,N/A,,Clear,0,2013-05-20 06:53:00
2:53 AM,62.1,55.9,80,29.64,10.0,SW,5.8,-,N/A,,Clear,230,2013-05-20 07:53:00
3:53 AM,59.0,55.0,87,29.65,10.0,Calm,Calm,-,N/A,,Clear,0,2013-05-20 08:53:00
4:53 AM,61.0,55.0,81,29.65,10.0,South,5.8,-,N/A,,Clear,190,2013-05-20 09:53:00
5:53 AM,60.1,55.0,83,29.68,10.0,South,3.5,-,N/A,,Clear,190,2013-05-20 10:53:00
6:53 AM,60.1,55.9,86,29.71,10.0,SW,3.5,-,N/A,,Clear,220,2013-05-20 11:53:00
7:53 AM,64.0,59.0,84,29.72,10.0,South,10.4,-,N/A,,Clear,190,2013-05-20 12:53:00
8:53 AM,68.0,57.2,68,29.74,10.0,WSW,9.2,-,N/A,,Clear,240,2013-05-20 13:53:00
9:53 AM,71.1,55.9,59,29.74,10.0,South,8.1,-,N/A,,Clear,190,2013-05-20 14:53:00
10:53 AM,75.0,55.9,51,29.72,10.0,SSW,11.5,-,N/A,,Clear,210,2013-05-20 15:53:00
11:53 AM,77.0,57.9,52,29.73,10.0,SSW,9.2,-,N/A,,Clear,200,2013-05-20 16:53:00
12:53 PM,79.0,57.0,47,29.70,10.0,SSW,10.4,17.3,N/A,,Clear,200,2013-05-20 17:53:00
1:53 PM,81.0,59.0,47,29.70,10.0,SSW,11.5,-,N/A,,Clear,210,2013-05-20 18:53:00
2:53 PM,82.0,59.0,45,29.68,10.0,South,12.7,-,N/A,,Partly Cloudy,170,2013-05-20 19:53:00
3:53 PM,82.0,57.9,44,29.64,10.0,SW,10.4,18.4,N/A,,Scattered Clouds,230,2013-05-20 20:53:00
4:53 PM,82.9,51.1,33,29.63,10.0,West,9.2,-,N/A,,Clear,270,2013-05-20 21:53:00
5:53 PM,82.9,51.1,33,29.60,10.0,SSW,9.2,-,N/A,,Clear,210,2013-05-20 22:53:00
6:53 PM,81.0,51.1,35,29.62,10.0,West,11.5,20.7,N/A,,Clear,260,2013-05-20 23:53:00
7:53 PM,77.0,51.1,40,29.65,10.0,West,10.4,-,N/A,,Clear,260,2013-05-21 00:53:00
8:53 PM,73.4,51.8,47,29.66,10.0,SSW,5.8,-,N/A,,Clear,210,2013-05-21 01:53:00
9:53 PM,70.0,53.1,55,29.66,10.0,South,5.8,-,N/A,,Clear,190,2013-05-21 02:53:00
10:53 PM,71.1,53.1,53,29.68,10.0,SSW,12.7,-,N/A,,Clear,210,2013-05-21 03:53:00
11:53 PM,71.1,54.0,55,29.69,10.0,West,15.0,23.0,N/A,,Clear,260,2013-05-21 04:53:00